User: anonymous   Login
Location: Caltech
(34.1382°N, 118.1253°W)
Time: 00:54:17
(UTC-07:00)
Language:

GPS 2-04 Rocket1 - Orbit

View from above orbital plane
View from above orbital plane
View from above satellite
View from above satellite

Ground track
Ground track

The orbit data is extracted from the following two-line orbital elements,

1 20303U 89085B   15147.75921863  .00006082  00000-0  25233-3 0  9991
2 20303 035.6323 032.5757 0123405 036.6352 011.3236 15.16585666386104
Epoch (UTC): 27 May 2015 18:13:16
Eccentricity: 0.0123405
inclination: 35.6323°
perigee height: 431 km
apogee height: 601 km
right ascension of ascending node: 32.5757°
argument of perigee: 36.6352°
revolutions per day: 15.16585666
mean anomaly at epoch: 11.3236°
orbit number at epoch: 38610

The dashed part of the orbit path shows where the satellite is in the earth's shadow,  

DLR